Cloud_Cover
0 0 0 0 1 5 1 0 2 1 0 0 0 0 0 5 5 0 0 0 0 0 0 1 0 3 0 0 1 0 2 4 2 4 86 50 5 5 100 100 44 58 100 100
0 0 0 0 0 0 0 0 0 0 0 1 0 0 0 5 48 5 0 1 5 0 0 2 0 0 0 0 0 4 2 1 5 4 25 86 5 5 100 96 100 100 100 100
0 0 0 0 0 0 0 0 0 0 0 0 0 0 5 5 5 0 0 2 0 0 0 0 0 2 0 0 4 25 0 0 2 5 19 56 34 9 20 100 100 100 100 100
0 0 0 0 0 0 0 0 0 0 0 0 0 1 2 1 0 0 1 5 0 0 0 0 0 3 0 0 0 89 5 5 0 5 4 6 98 60 41 68 100 100 100 100
0 0 0 0 0 0 0 0 0 0 0 0 0 5 50 99 32 0 4 0 0 0 0 0 0 0 0 0 0 2 5 4 4 4 1 50 100 55 93 100 99 100 100 100
0 0 0 0 0 0 0 0 0 0 2 64 3 90 65 82 68 25 0 0 3 4 0 0 0 0 0 0 0 0 0 5 0 5 1 10 100 100 98 100 100 100 100 100
0 0 4 0 0 0 0 0 0 0 61 71 69 92 100 18 100 81 5 0 0 2 0 0 0 0 0 0 0 0 0 0 2 5 5 34 100 100 91 98 100 100 100 29
0 3 9 5 0 0 0 0 0 2 26 82 89 9 98 92 17 5 5 5 3 5 0 0 0 0 0 0 0 0 0 0 2 48 5 100 100 100 100 100 100 100 100 99
0 54 85 94 22 2 0 0 3 5 0 4 100 53 100 91 96 100 32 68 8 0 4 22 100 100 100 0 0 0 0 0 0 86 4 26 100 100 100 100 100 100 100 99
0 0 2 5 71 2 0 1 49 3 5 3 21 100 100 100 59 11 15 32 1 1 5 71 100 100 100 1 0 0 0 0 2 6 4 44 100 100 100 100 100 100 96 100
0 0 0 0 0 35 36 86 57 42 51 2 1 4 59 88 81 0 4 54 43 1 0 35 91 100 100 28 22 0 0 0 5 4 3 12 94 100 100 100 100 100 100 100
2 0 0 0 0 0 7 93 5 100 38 60 53 95 9 51 29 5 4 100 100 80 0 0 53 100 100 100 100 100 0 0 5 5 1 7 5 100 100 100 100 100 100 100
1 0 0 0 0 0 4 26 2 2 58 98 87 94 98 75 38 76 4 4 70 84 8 4 2 97 100 100 100 100 93 0 2 5 4 2 3 10 100 100 100 100 96 100
0 0 0 0 0 0 0 0 1 1 5 4 2 67 37 34 89 25 5 84 45 87 1 2 76 100 100 100 100 100 85 0 0 5 5 5 1 18 34 100 100 82 77 72
3 0 0 0 0 0 0 0 0 4 4 4 0 35 100 2 1 55 76 9 36 100 78 4 9 30 100 100 100 86 0 2 0 0 5 5 4 5 78 6 96 99 36 84
2 40 100 94 4 0 0 0 0 0 0 0 1 42 72 36 0 0 0 0 0 92 100 50 4 0 0 1 91 100 57 0 0 0 5 5 1 5 24 7 6 48 60 20
12 7 0 0 0 0 0 0 0 0 0 1 10 3 2 0 0 0 0 6 2 6 99 96 7 0 0 0 0 4 94 10 0 0 1 5 5 3 37 4 5 64 49 1
0 0 0 0 0 0 0 0 3 5 0 20 100 64 12 3 0 0 0 0 4 20 0 10 20 0 0 0 0 0 1 100 28 0 0 99 31 5 5 78 6 60 52 0
0 0 0 0 0 0 0 2 1 11 6 5 5 0 0 0 85 9 3 0 0 0 63 0 0 0 0 0 0 0 0 1 1 2 1 99 23 43 65 57 91 23 5 0
100 67 32 4 0 0 0 0 4 2 5 5 5 10 6 94 91 5 0 0 0 0 0 0 0 0 0 0 0 0 0 0 0 0 0 55 100 82 94 57 22 5 5 1
35 86 69 94 88 99 57 5 8 38 2 0 0 1 0 2 18 74 27 0 0 0 0 0 0 0 0 0 0 0 0 0 0 73 17 19 96 51 64 4 3 6 45 4
0 2 0 0 8 47 5 5 22 77 55 54 100 47 98 51 0 5 0 0 0 0 0 0 0 0 0 0 0 0 0 0 0 9 90 62 92 5 5 1 0 0 46 94
2 5 5 6 57 65 5 5 5 12 5 5 5 6 5 5 5 1 0 0 0 0 0 0 0 0 0 0 0 0 0 0 0 6 87 100 100 99 59 4 8 0 1 50
4 4 5 5 4 4 5 9 4 5 5 5 5 3 3 3 5 3 4 4 2 0 0 2 3 0 0 0 0 0 0 0 1 69 59 37 100 100 100 100 85 59 8 42
3 2 1 0 1 55 57 5 4 5 5 5 5 5 5 4 0 5 4 2 2 1 0 0 0 0 0 0 0 0 0 0 14 29 48 5 100 43 78 100 100 100 100 86
3 2 1 5 5 16 96 71 39 5 5 4 0 1 0 1 67 46 0 4 5 2 2 0 0 0 0 0 0 0 0 0 83 30 44 31 39 99 100 85 100 100 100 100